This demonstration page uses our WeatherBlox Daily Observations layout. Learn more.

Left ArrowRight Arrow

39.01783, -85.05884

Hourly Observations for March 25, 2015

Temp ( °F °C ) Dew Point ( °F °C ) Humidity (%) Winds ( mph kmh ) Pressure ( in mb ) Visibility ( mi km ) Precip ( " mm )
12:52 am 00:52 Cloudy with Rain 45 7.2 38 3.3 77 77 SE 8 13 30.05 1018 5 8 0.06 1.52
1:52 am 01:52 Cloudy 44 6.7 39 3.9 83 83 ESE 10 17 30.02 1017 10 16 0.00 0.03
2:52 am 02:52 Cloudy 44 6.7 39 3.9 83 83 SSE 8 13 30.01 1016 10 16 0.00 0.00
3:52 am 03:52 Cloudy 47 8.3 40 4.4 77 77 SE 16 26 29.96 1015 10 16 0.00 0.00
4:52 am 04:52 Mostly Cloudy 48 8.9 42 5.6 80 80 SSE 10 17 29.95 1014 10 16 0.06 1.52
5:52 am 05:52 Cloudy with Light Rain 49 9.4 42 5.6 77 77 SSE 14 22 29.92 1013 10 16 0.00 0.03
6:18 am 06:18 Cloudy with Thunderstorms 52 11 45 7 77 77 S 10 17 29.94 1014 5 8 0.00 0.00
6:38 am 06:38 Cloudy with Light Rain 52 11 46 8 82 82 S 13 20 29.91 1013 10 16 0.00 0.00
6:52 am 06:52 Cloudy 52 11.1 46 7.8 80 80 S 13 20 29.92 1013 10 16 0.07 1.78
7:52 am 07:52 Mostly Cloudy 55 12.8 48 8.9 77 77 SSW 14 22 29.93 1014 10 16 0.00 0.00
8:16 am 08:16 Cloudy 55 13 48 9 77 77 SSW 13 20 29.94 1014 10 16 0.00 0.00
10:52 am 10:52 Mostly Cloudy 63 17.2 53 11.7 70 70 SW 18 30 29.96 1015 10 16 0.00 0.00
11:52 am 11:52 Mostly Cloudy 66 18.9 52 11.1 61 61 SW 13 20 29.98 1015 10 16 0.00 0.00
12:52 pm 12:52 Mostly Cloudy 67 19.4 50 10 55 55 WSW 15 24 29.99 1016 10 16 0.00 0.00
1:52 pm 13:52 Mostly Cloudy 69 20.6 52 11.1 55 55 W 20 31 30.00 1016 10 16 0.00 0.00
2:52 pm 14:52 Mostly Cloudy 68 20 52 11.1 57 57 W 16 26 30.00 1016 10 16 0.00 0.00
3:52 pm 15:52 Partly Cloudy 68 20 52 11.1 57 57 WNW 18 30 30.00 1016 10 16 0.00 0.00
4:52 pm 16:52 Partly Cloudy 66 18.9 51 10.6 59 59 WNW 14 22 30.02 1017 9 14 0.00 0.00
5:52 pm 17:52 Partly Cloudy 66 18.9 48 8.9 52 52 WNW 13 20 30.01 1016 10 16 0.00 0.00
6:52 pm 18:52 Mostly Cloudy 63 17.2 46 7.8 54 54 WNW 12 19 30.01 1016 10 16 0.00 0.00
7:52 pm 19:52 Mostly Cloudy 60 15.6 45 7.2 58 58 NW 7 11 30.02 1017 10 16 0.00 0.00
8:52 pm 20:52 Mostly Cloudy 55 12.8 46 7.8 72 72 N 9 15 30.01 1016 10 16 0.00 0.00
9:52 pm 21:52 Mostly Cloudy 53 11.7 46 7.8 77 77 N 3 6 30.01 1016 10 16 0.00 0.00
10:52 pm 22:52 Cloudy 52 11.1 45 7.2 77 77 Calm 29.99 1016 10 16 0.00 0.00
11:52 pm 23:52 Cloudy 53 11.7 46 7.8 77 77 NE 6 9 29.96 1015 9 14 0.00 0.00

Powered by AerisWeather